Location: Goettingen
(51.5300°N, 9.9433°E)
Time: 22:57:00
(UTC+01:00)

ISS - Pass Details

Date: 12 November 2018
Orbit: 402 x 409 km, 51.6° (Epoch: 14 November)

Event Time Altitude Azimuth Distance (km) Brightness Sun altitude
Exits shadow 04:19:01 11° 112° (ESE) 1,416 -0.4 -30.0°
Drops below altitude 10° 04:19:10 10° 111° (ESE) 1,480 -0.3 -30.0°
Sets 04:21:13 0° 109° (ESE) 2,321 0.9 -29.7°
